Weather reports worldwide

Advertisment
Düsseldorf, Germany (10400): temperature & dewpoint: 16.02.2019 22:00:00 - 22.02.2019 22:00:00 (CET)Düsseldorf, Germany (10400): temperature 5cm & temperature -5cm: 16.02.2019 22:00:00 - 22.02.2019 22:00:00 (CET)Düsseldorf, Germany (10400): temperature -20cm & temperature -100cm: 16.02.2019 22:00:00 - 22.02.2019 22:00:00 (CET)Düsseldorf, Germany (10400): wind speed & gusts: 16.02.2019 22:00:00 - 22.02.2019 22:00:00 (CET)Düsseldorf, Germany (10400): wind direction: 16.02.2019 22:00:00 - 22.02.2019 22:00:00 (CET)Düsseldorf, Germany (10400): reduced air pressure: 16.02.2019 22:00:00 - 22.02.2019 22:00:00 (CET)Düsseldorf, Germany (10400): visibility: 16.02.2019 22:00:00 - 22.02.2019 22:00:00 (CET)Düsseldorf, Germany (10400): sunshine duration: 16.02.2019 22:00:00 - 22.02.2019 22:00:00 (CET)Düsseldorf, Germany (10400): precipitation: 16.02.2019 22:00:00 - 22.02.2019 22:00:00 (CET)
Date & Time tt [°C] td [°C] tt 5cm [°C] tt -5cm [°C] tt -20cm [°C] tt -100cm [°C] ff [km/h] ff [kn] fx [km/h] fx [kn] dd ppp [hPa] vv [km] sd [min] rr [mm]
22.02.2019 22:00:00 8,1 6,1 4,5 6,8 8,1 6,0 9 5 14 8 ENE 1038,6 10 0 0,0
22.02.2019 21:00:00 9,5 6,0 7,7 7,4 8,3 5,9 9 5 21 11 NE 1038,3 10 0 0,0
22.02.2019 20:00:00 8,9 4,9 6,2 8,3 8,6 5,9 11 6 18 10 NE 1037,9 10 0 0,0
22.02.2019 19:00:00 11,0 5,5 9,9 9,2 8,7 5,9 13 7 19 10 ENE 1037,9 35 0 0,0
22.02.2019 18:00:00 11,4 5,7 9,6 10,1 8,8 5,9 9 5 16 9 NE 1037,3 10 37 0,0
22.02.2019 17:00:00 12,1 6,1 12,0 10,5 8,7 5,9 8 4 23 12 E 1037,2 10 4 0,0
22.02.2019 16:00:00 12,9 6,0 13,7 11,3 8,6 5,9 11 6 22 12 ENE 1036,9 40 5 0,0
22.02.2019 15:00:00 12,7 6,2 13,3 11,3 8,3 5,9 7 4 13 7 E 1036,9 45 1 0,0
22.02.2019 14:00:00 12,2 7,0 12,1 11,8 8,0 5,9 9 5 17 9 NE 1036,9 10 12 0,0
22.02.2019 13:00:00 11,8 8,0 11,9 11,7 7,6 5,9 9 5 13 7 N 1036,7 22 12 0,0
22.02.2019 12:00:00 11,1 9,0 11,4 10,7 7,3 5,9 5 3 9 5 N 1036,6 9 6 0,0
22.02.2019 11:00:00 9,7 8,8 10,7 9,1 7,1 5,9 4 2 9 5 - 1036,2 4,2 0 0,0
22.02.2019 10:00:00 9,1 8,7 9,3 8,1 7,0 5,8 6 4 15 8 N 1036,0 1,8 0 -
22.02.2019 09:00:00 8,8 8,5 8,7 7,7 7,0 5,8 4 2 9 5 NNW 1035,0 1,0 0 0,0
22.02.2019 08:00:00 8,6 8,4 8,4 7,6 6,9 5,8 5 3 8 4 NW 1034,3 1,3 0 0,1
22.02.2019 07:00:00 8,7 8,4 8,5 7,6 6,9 5,8 4 2 5 3 NNW 1033,8 1,3 0 0,1
22.02.2019 06:00:00 8,7 8,5 8,4 7,6 6,9 5,8 5 3 13 7 NNW 1033,1 1,3 0 0,1
22.02.2019 05:00:00 8,8 8,5 8,5 7,6 6,9 5,8 9 5 12 6 NW 1032,6 1,8 0 0,1
22.02.2019 04:00:00 8,9 8,6 8,6 7,6 6,9 5,8 9 5 14 8 NW 1032,3 1,8 0 0,1
22.02.2019 03:00:00 8,9 8,6 8,7 7,6 6,9 5,8 5 3 11 6 WNW 1032,0 1,8 0 0,1
22.02.2019 02:00:00 9,0 8,6 8,7 7,6 6,9 5,8 8 5 11 6 WNW 1031,8 1,7 0 0,0
22.02.2019 01:00:00 9,0 8,7 8,7 7,6 6,9 5,8 6 4 11 6 W 1031,4 1,8 0 0,0
22.02.2019 00:00:00 9,0 8,6 8,6 7,6 6,9 5,8 5 3 12 6 W 1031,0 2,0 0 0,2
21.02.2019 23:00:00 9,2 8,4 8,7 7,7 6,9 5,8 9 5 16 9 WNW 1030,8 2,6 0 0,0
21.02.2019 22:00:00 10,1 7,5 9,1 7,6 6,9 5,8 13 7 19 10 NW 1030,2 10 0 0,0
21.02.2019 21:00:00 10,1 7,7 8,6 7,7 7,0 5,8 4 2 15 8 - 1029,4 10 0 0,0
21.02.2019 20:00:00 9,6 7,8 8,3 7,9 7,0 5,8 4 2 18 10 SW 1029,1 10 0 0,3
21.02.2019 19:00:00 11,1 6,7 10,5 8,2 7,0 5,8 21 11 29 16 W 1028,7 10 0 0,0
21.02.2019 18:00:00 11,2 6,9 10,0 8,7 6,9 5,8 8 4 15 8 SW 1028,0 10 0 0,0
21.02.2019 17:00:00 12,0 6,5 11,7 9,2 6,8 5,8 13 7 18 10 SW 1027,4 25 0 0,0
21.02.2019 16:00:00 11,9 6,3 12,1 9,5 6,6 5,8 11 6 20 11 SW 1027,5 10 0 0,0
21.02.2019 15:00:00 11,4 5,5 11,7 9,9 6,2 5,8 15 8 35 19 W 1027,6 10 9 0,0
21.02.2019 14:00:00 12,6 4,9 14,1 10,1 5,6 5,8 22 12 36 19 WSW 1027,2 10 27 0,0
21.02.2019 13:00:00 13,2 6,1 15,3 9,9 5,0 5,8 18 10 28 15 WSW 1027,3 10 58 0,0
21.02.2019 12:00:00 10,8 5,9 11,8 7,0 4,6 5,8 15 8 24 13 SW 1027,7 15 10 0,0
21.02.2019 11:00:00 9,4 5,0 10,5 5,8 4,2 5,8 15 8 21 11 SSW 1027,4 10 8 0,0
21.02.2019 10:00:00 7,5 4,2 7,6 4,3 4,1 5,8 9 5 22 12 SSE 1027,1 10 6 0,0
21.02.2019 09:00:00 5,7 3,3 4,6 2,8 4,1 5,8 17 9 22 12 SSE 1026,6 20 0 0,0
21.02.2019 08:00:00 4,2 2,3 1,6 2,3 4,2 5,8 13 7 21 11 SSE 1026,4 10 0 0,0
21.02.2019 07:00:00 4,2 2,0 0,7 2,6 4,3 5,8 11 6 21 11 SSE 1025,9 10 0 0,0
21.02.2019 06:00:00 4,8 2,4 2,3 3,0 4,4 5,8 13 7 22 12 SSE 1026,0 10 0 0,0
21.02.2019 05:00:00 4,5 2,4 2,8 2,9 4,5 5,8 10 6 16 9 SSE 1026,3 18 0 0,0
21.02.2019 04:00:00 4,2 1,9 2,2 2,4 4,7 5,8 11 6 21 11 S 1026,2 10 0 0,0
21.02.2019 03:00:00 4,2 2,0 0,9 2,6 4,9 5,8 15 8 22 12 SSE 1025,9 10 0 0,0
21.02.2019 02:00:00 4,5 2,1 0,4 2,8 5,1 5,8 15 8 18 10 SSE 1025,8 10 0 0,0
21.02.2019 01:00:00 4,8 2,1 -0,1 3,2 5,4 5,7 14 8 21 11 SSW 1025,7 20 0 0,0
21.02.2019 00:00:00 5,6 2,6 0,0 3,6 5,7 5,7 13 7 16 9 SSW 1025,5 20 0 0,0
20.02.2019 23:00:00 6,1 2,7 0,8 4,1 6,0 5,7 15 8 18 10 SSW 1025,3 10 0 0,0
20.02.2019 22:00:00 6,4 2,5 1,1 4,8 6,2 5,7 13 7 16 9 SSW 1025,0 25 0 0,0
20.02.2019 21:00:00 7,3 2,9 2,2 5,6 6,4 5,7 11 6 16 9 SSW 1024,7 25 0 0,0
20.02.2019 20:00:00 8,4 3,3 5,1 6,3 6,6 5,7 11 6 18 10 SSW 1024,5 30 0 0,0
20.02.2019 19:00:00 8,5 3,5 4,7 6,7 6,8 5,7 13 7 18 10 SW 1024,3 30 0 0,0
20.02.2019 18:00:00 9,0 3,2 6,3 7,8 6,8 5,7 15 8 27 15 SW 1023,7 10 0 0,0
20.02.2019 17:00:00 10,9 3,4 10,5 8,8 6,7 5,7 19 10 31 17 SW 1023,6 35 2 0,0
20.02.2019 16:00:00 11,0 3,0 11,0 9,5 6,5 5,7 23 13 35 19 SSW 1023,4 30 32 0,0
20.02.2019 15:00:00 11,5 3,4 12,4 9,7 6,1 5,7 23 12 31 17 SSW 1023,5 30 22 0,0
20.02.2019 14:00:00 11,6 3,8 13,4 9,5 5,7 5,7 18 10 30 16 WSW 1023,7 30 17 0,0
20.02.2019 13:00:00 10,8 3,7 11,9 8,9 5,2 5,7 22 12 29 16 SW 1023,7 10 16 0,0
20.02.2019 12:00:00 9,8 4,2 10,4 7,8 4,7 5,7 16 9 25 14 S 1023,6 10 29 0,0
20.02.2019 11:00:00 8,1 3,1 9,2 6,3 4,4 5,7 15 8 22 12 SSW 1023,5 10 20 0,0
20.02.2019 10:00:00 6,7 2,7 7,0 4,3 4,2 5,7 11 6 16 9 SSE 1023,4 10 17 0,0
20.02.2019 09:00:00 4,6 1,7 3,8 3,2 4,2 5,7 14 7 21 11 SSE 1023,0 35 0 0,0
20.02.2019 08:00:00 4,2 1,5 3,3 3,0 4,3 5,7 13 7 16 9 SSE 1022,4 10 0 0,0
20.02.2019 07:00:00 4,0 1,2 1,4 3,0 4,3 5,7 9 5 18 10 S 1022,0 30 0 0,0
20.02.2019 06:00:00 4,2 1,6 3,1 3,1 4,4 5,7 9 5 18 10 SSE 1022,2 10 0 0,0
20.02.2019 05:00:00 4,4 1,9 3,4 2,8 4,5 5,7 10 5 15 8 SSE 1022,0 22 0 0,0
20.02.2019 04:00:00 3,7 1,3 0,7 2,6 4,6 5,7 11 6 16 9 S 1021,9 10 0 0,0
20.02.2019 03:00:00 3,5 0,9 -0,1 2,7 4,8 5,7 13 7 18 10 SSW 1022,0 10 0 0,0
20.02.2019 02:00:00 3,7 1,3 0,5 2,9 5,0 5,7 14 8 16 9 SW 1022,0 25 0 0,0
20.02.2019 01:00:00 4,5 1,8 1,6 3,2 5,2 5,7 11 6 15 8 SW 1022,1 10 0 0,0
20.02.2019 00:00:00 4,3 1,6 -0,4 3,1 5,4 5,6 10 6 15 8 SSW 1021,8 30 0 0,0
19.02.2019 23:00:00 4,5 1,2 -0,1 3,7 5,7 5,6 13 7 16 9 SSW 1021,7 30 0 0,0
19.02.2019 22:00:00 5,4 1,7 0,6 4,2 5,9 5,6 10 6 16 9 SSW 1021,6 30 0 0,0
19.02.2019 21:00:00 5,4 1,8 1,3 4,7 6,2 5,6 11 6 15 8 SW 1021,4 10 0 0,0
19.02.2019 20:00:00 6,8 2,1 1,5 5,1 6,4 5,6 11 6 16 8 SW 1021,1 10 0 0,0
19.02.2019 19:00:00 7,4 1,9 1,7 5,9 6,7 5,6 11 6 22 12 SW 1020,6 10 0 0,0
19.02.2019 18:00:00 9,2 2,2 7,2 7,0 6,8 5,6 15 8 33 18 WSW 1020,2 25 0 0,0
19.02.2019 17:00:00 10,3 2,2 9,6 7,9 6,8 5,6 16 9 31 17 WSW 1020,0 10 17 0,0
19.02.2019 16:00:00 10,5 2,4 10,5 8,5 6,7 5,6 21 11 31 17 W 1020,0 10 12 0,0
19.02.2019 15:00:00 10,4 2,7 10,6 9,1 6,5 5,6 22 12 39 21 W 1019,9 10 16 0,0
19.02.2019 14:00:00 10,3 2,3 11,0 8,9 6,2 5,6 24 13 40 21 W 1019,8 10 4 0,0
19.02.2019 13:00:00 10,0 2,9 10,9 9,1 5,8 5,6 28 15 42 23 W 1020,0 35 19 0,0
19.02.2019 12:00:00 10,5 3,4 13,0 8,6 5,4 5,6 26 14 44 24 WSW 1019,8 10 43 0,0
19.02.2019 11:00:00 9,5 4,6 11,0 7,1 5,1 5,6 24 13 35 19 SW 1019,7 20 56 0,0
19.02.2019 10:00:00 7,9 5,3 8,3 5,2 5,0 5,6 16 9 24 13 SW 1019,5 10 26 0,0
19.02.2019 09:00:00 6,5 4,8 5,6 4,7 5,0 5,6 16 9 22 12 SW 1019,1 10 0 0,0
19.02.2019 08:00:00 6,5 4,8 5,5 4,6 5,0 5,5 16 9 24 13 SW 1018,2 10 0 0,0
19.02.2019 07:00:00 6,2 4,7 5,3 4,7 5,0 5,5 16 9 21 11 SW 1017,7 13 0 0,0
19.02.2019 06:00:00 6,4 4,7 5,6 4,6 5,0 5,5 14 7 16 9 SSW 1017,4 15 0 0,0
19.02.2019 05:00:00 6,9 4,3 5,8 4,6 5,0 5,5 11 6 16 8 SW 1017,1 10 0 0,0
19.02.2019 04:00:00 7,7 3,5 6,8 4,0 5,0 5,5 9 5 16 9 WSW 1016,8 10 0 0,0
19.02.2019 03:00:00 5,6 1,5 2,3 3,4 5,2 5,5 12 6 16 9 SW 1016,8 30 0 0,0
19.02.2019 02:00:00 5,6 1,7 1,7 3,7 5,4 5,5 11 6 15 8 S 1016,4 30 0 0,0
19.02.2019 01:00:00 5,5 1,5 1,1 3,8 5,6 5,5 11 6 21 11 SSE 1016,3 10 0 0,0
19.02.2019 00:00:00 6,6 1,5 0,9 4,3 5,9 5,5 13 7 19 10 SSE 1016,3 10 0 0,0
18.02.2019 23:00:00 7,1 1,7 3,1 4,7 6,1 5,5 13 7 21 11 SSE 1016,3 10 0 0,0
18.02.2019 22:00:00 7,9 1,7 3,0 5,2 6,4 5,5 13 7 18 10 SSE 1016,3 10 0 0,0
18.02.2019 21:00:00 8,5 1,7 3,8 5,7 6,7 5,5 15 8 21 11 S 1016,3 10 0 0,0
18.02.2019 20:00:00 9,6 2,0 6,6 6,4 6,9 5,5 15 8 29 16 S 1016,0 10 0 0,0
18.02.2019 19:00:00 11,6 1,1 9,2 7,2 7,2 5,5 21 11 31 17 SSE 1015,5 10 0 0,0
18.02.2019 18:00:00 13,2 0,1 10,8 8,5 7,3 5,5 20 11 35 19 S 1015,4 50 29 0,0
18.02.2019 17:00:00 14,9 2,2 13,2 10,4 7,1 5,5 15 8 22 12 S 1015,5 45 60 0,0
18.02.2019 16:00:00 16,0 1,5 16,1 11,4 6,8 5,5 13 7 21 11 S 1015,6 10 60 0,0
18.02.2019 15:00:00 16,0 1,1 17,3 11,7 6,2 5,5 11 6 16 9 SSE 1016,0 10 60 0,0
18.02.2019 14:00:00 15,5 1,0 16,8 11,0 5,6 5,5 13 7 22 12 S 1017,2 10 59 0,0
18.02.2019 13:00:00 13,9 0,2 14,9 9,9 5,0 5,5 15 8 22 12 S 1018,1 10 60 0,0
18.02.2019 12:00:00 12,6 0,4 14,1 8,2 4,5 5,5 18 10 28 15 SSE 1018,7 10 60 0,0
18.02.2019 11:00:00 11,1 0,3 11,7 6,1 4,1 5,4 18 10 35 19 SSE 1019,2 10 60 0,0
18.02.2019 10:00:00 8,9 -0,1 8,9 4,2 4,0 5,4 24 13 35 19 SSE 1019,3 10 60 0,0
18.02.2019 09:00:00 7,3 -0,4 6,2 2,8 4,0 5,4 24 13 31 17 SSE 1019,6 10 37 0,0
18.02.2019 08:00:00 5,9 -0,5 4,1 2,4 4,1 5,4 22 12 31 17 SSE 1019,4 10 0 0,0
18.02.2019 07:00:00 6,5 -0,2 4,7 2,4 4,3 5,4 23 12 33 18 SSE 1019,6 50 0 0,0
18.02.2019 06:00:00 5,7 -0,1 2,1 2,6 4,5 5,4 20 11 29 16 SSE 1019,8 45 0 0,0
18.02.2019 05:00:00 6,1 -0,2 3,2 3,0 4,6 5,4 21 11 33 18 SSE 1019,9 10 0 0,0
18.02.2019 04:00:00 7,1 0,2 4,8 3,2 4,8 5,4 22 12 33 18 SSE 1020,0 40 0 0,0
18.02.2019 03:00:00 7,1 0,2 4,6 3,4 4,9 5,4 18 10 30 16 SSE 1020,4 10 0 0,0
18.02.2019 02:00:00 8,2 0,1 6,1 3,6 5,1 5,4 22 12 32 17 SSE 1020,5 10 0 0,0
18.02.2019 01:00:00 8,7 0,0 6,3 3,6 5,4 5,4 24 13 31 17 SSE 1020,5 10 0 0,0
18.02.2019 00:00:00 6,7 -0,1 1,3 3,9 5,6 5,4 18 10 27 14 SSE 1020,4 10 0 0,0
17.02.2019 23:00:00 7,7 0,2 3,7 4,5 5,9 5,4 18 10 26 14 SSE 1020,7 10 0 0,0
17.02.2019 22:00:00 8,9 0,8 6,2 5,1 6,1 5,4 18 10 25 14 SSE 1020,6 10 0 0,0
17.02.2019 21:00:00 10,4 1,2 7,7 5,7 6,4 5,4 16 9 22 12 SSE 1020,3 10 0 0,0
17.02.2019 20:00:00 11,5 1,1 8,8 6,3 6,6 5,4 16 9 27 15 SSE 1020,0 10 0 0,0
17.02.2019 19:00:00 12,8 0,9 9,9 7,0 6,8 5,4 18 10 28 15 SSE 1019,6 10 0 0,0
17.02.2019 18:00:00 14,1 0,7 10,6 8,3 6,8 5,4 11 6 25 14 SSE 1019,2 10 22 0,0
17.02.2019 17:00:00 16,2 0,7 14,8 10,0 6,7 5,4 16 9 26 14 S 1019,4 10 60 0,0
17.02.2019 16:00:00 16,8 1,0 16,9 10,7 6,3 5,4 18 10 29 15 SSE 1019,6 10 60 0,0
17.02.2019 15:00:00 16,1 0,8 17,0 10,7 5,8 5,4 18 10 30 16 SSE 1020,0 10 60 0,0
17.02.2019 14:00:00 15,6 1,8 17,0 10,1 5,2 5,4 18 10 34 18 S 1020,7 10 60 0,0
17.02.2019 13:00:00 13,8 1,7 14,5 8,8 4,6 5,3 21 11 30 16 SSE 1021,3 10 60 0,0
17.02.2019 12:00:00 12,2 1,8 13,0 7,4 4,1 5,3 22 12 36 19 SSE 1022,0 28 60 0,0
17.02.2019 11:00:00 9,7 1,9 9,9 5,6 3,7 5,3 26 14 37 20 SSE 1022,3 10 60 0,0
17.02.2019 10:00:00 8,5 1,6 8,4 4,1 3,5 5,3 26 14 37 20 SSE 1022,6 10 60 0,0
17.02.2019 09:00:00 6,9 1,8 5,7 2,6 3,5 5,3 21 12 29 16 SSE 1023,0 25 9 0,0
17.02.2019 08:00:00 6,6 1,7 4,5 2,0 3,5 5,3 18 10 31 17 SSE 1023,0 10 0 0,0
17.02.2019 07:00:00 6,4 1,6 4,2 1,6 3,7 5,3 22 12 32 17 SSE 1023,1 10 0 0,0
17.02.2019 06:00:00 5,7 1,0 1,2 1,5 3,9 5,3 13 7 22 12 SSE 1023,5 25 0 0,0
17.02.2019 05:00:00 6,5 1,4 -1,3 1,7 4,1 5,3 11 6 16 9 SSE 1023,8 10 0 0,0
17.02.2019 04:00:00 4,9 1,1 -0,9 2,1 4,2 5,3 8 4 24 13 SE 1024,3 25 0 0,0
17.02.2019 03:00:00 5,1 0,9 0,7 2,3 4,5 5,3 16 9 28 15 SSE 1024,7 25 0 0,0
17.02.2019 02:00:00 6,2 1,4 1,0 2,4 4,7 5,3 17 9 24 13 SSE 1024,9 25 0 0,0
17.02.2019 01:00:00 3,2 0,6 -0,9 2,6 5,0 5,2 15 8 21 11 SSE 1025,2 10 0 0,0
17.02.2019 00:00:00 3,0 0,6 -1,8 3,1 5,3 5,2 4 2 9 5 NE 1025,5 25 0 0,0
16.02.2019 23:00:00 3,9 1,1 0,8 3,5 5,6 5,2 9 5 11 6 ESE 1025,5 10 0 0,0
16.02.2019 22:00:00 5,0 1,3 1,2 4,1 5,9 5,2 9 5 13 7 ESE 1025,5 10 0 0,0

tt = temperature
td = dewpoint
tt 5cm = temperature 5cm
tt -5cm = temperature -5cm
tt -20cm = temperature -20cm
tt -100cm = temperature -100cm
ff = wind speed
fx = gusts
dd = wind direction
ppp = reduced air pressure
vv = visibility
sd = sunshine duration
rr = precipitation

Next stations